Location: Dallas
(32.7833°N, 96.8000°W)
Time: 22:48:03
(UTC-05:00)

N. Korean satellite - Visible Passes

Search period start: 09 May 2021 00:00
Search period end: 19 May 2021 00:00
Orbit: 451 x 500 km, 97.2° (Epoch: 09 May)

Date Brightness Start Highest point End Pass type
(mag) Time Alt. Az. Time Alt. Az. Time Alt. Az.
10 May 9.7 05:48:41 10° ENE 05:49:51 11° E 05:51:02 10° ESE visible
13 May 9.4 05:59:35 10° NE 06:01:52 17° E 06:04:09 10° SE visible
17 May 9.9 05:46:04 10° E 05:46:36 10° E 05:47:09 10° ESE visible
